Regional Weather Roundup
Issued by NWS

Home | Current Version | Previous Version | Text Only | Print | Product List | Glossary Off
Versions: 1 2 3 4 5 6 7 8 9 10 11 12 13 14 15 16 17 18 19 20 21 22 23 24 25 26 27 28 29 30 31 32 33 34 35 36 37 38 39 40 41 42 43 44 45 46 47 48 49 50

000
ASUS45 KTFX 111610
RWRMT
MONTANA REGIONAL WEATHER ROUNDUP
NATIONAL WEATHER SERVICE GREAT FALLS MT
900 AM MST THU FEB 11 2016

NOTE: "FAIR" INDICATES FEW OR NO CLOUDS BELOW 12000 FEET WITH NO
SIGNIFICANT WEATHER AND/OR OBSTRUCTIONS TO VISIBILITY.

MTZ001>007-043-111700-
WEST OF THE DIVIDE

CITY           SKY/WX    TMP DP  RH WIND       PRES   REMARKS
KALISPELL      PTCLDY    30  28  92 CALM      30.28R
MISSOULA       MOSUNNY   34  29  82 CALM      30.30S
BUTTE          CLOUDY    24  19  81 SE5       30.27R
MULLAN PASS    CLOUDY    31  31 100 S6        30.27R FOG     WCI  25
ANACONDA         N/A     45  27  49 SW12      30.26S
DEER LODGE       N/A     36  28  75 W5        30.28R
HAMILTON         N/A     39  30  70 S7        30.29R
PLAINS           N/A     32  28  85 CALM      30.29R
THOMPSON FALLS   N/A     30  29  96 CALM      30.34R
$$

MTZ008-052>055-111700-
SOUTHWEST MONTANA

CITY           SKY/WX    TMP DP  RH WIND       PRES   REMARKS
BOZEMAN        CLOUDY    30  24  78 SW6       30.25R WCI  24
DILLON         CLOUDY    36  25  64 SW20      30.25S WCI  25
ENNIS          SUNNY     36  25  64 S15       30.35R WCI  26
THREE FORKS      N/A     31  31 100 CALM      30.20S
TWIN BRIDGES     N/A     30  19  63 E5        30.23R
$$

MTZ009-010-012-014-046-048-049-054-111700-
EAST SLOPES AND CENTRAL MONTANA

CITY           SKY/WX    TMP DP  RH WIND       PRES   REMARKS
CUT BANK       PTSUNNY   42  28  57 SW5       30.14R
GREAT FALLS    CLOUDY    43  27  53 SW10      30.14R
MALMSTROM AFB  CLOUDY    42  30  63 SW14      30.14S
HELENA         CLOUDY    45  30  55 SE6       30.23R
CHOTEAU          N/A     48  23  37 W21G31    30.15R
CONRAD           N/A     47  30  51 SW17      30.12S
$$

MTZ011-013-016-021-045-047-050-051-111700-
NORTH CENTRAL MONTANA

CITY           SKY/WX    TMP DP  RH WIND       PRES   REMARKS
HAVRE          CLOUDY    38  31  76 W12       30.10R WCI  30
LEWISTOWN      CLOUDY    45  27  49 W21G29    30.12R
N BAR RANCH      N/A     45  25  45 NW28G35   30.09S
CHINOOK          N/A     34  30  86 CALM      30.10R
$$

MTZ017>020-022>027-061-062-111700-
NORTHEAST MONTANA

CITY           SKY/WX    TMP DP  RH WIND       PRES   REMARKS
GLASGOW        LGT SNOW  28  25  88 E7        30.08R FOG     WCI  21
JORDAN           N/A     35  32  88 W6        30.03R WCI  30
SIDNEY         CLOUDY    25  21  86 NE13      30.07R VSB 3/4 WCI  13
WOLF POINT     LGT SNOW  29  23  78 NE10      30.10R VSB 3/4 WCI  20
PLENTYWOOD       N/A     19  16  86 NE10      30.11R VSB 1   WCI   8
POPLAR           N/A     25  21  86 NE12      30.10R VSB 3/4 WCI  14
SCOBEY           N/A     22  15  74 N8        30.07R WCI  13
$$

MTZ028>42-056>058-111700-
SOUTHCENTRAL AND SOUTHEAST MONTANA

CITY           SKY/WX    TMP DP  RH WIND       PRES   REMARKS
BAKER          CLOUDY    35  29  78 NW10      29.99R WCI  27
BILLINGS       CLOUDY    52  25  35 NW26G39   30.13R
LIVINGSTON     CLOUDY    47  22  37 W29       30.17R
MILES CITY     CLOUDY    40  31  70 NW6       30.03R
EKALAKA          N/A     41  28  60 W17       29.96R
FORSYTH          N/A     39  30  70 SW9       30.05R
LAUREL           N/A     48  25  41 CALM      30.12R
ROUNDUP          N/A     44  25  47 S2        30.01R
$$

REGIONAL REPORTS...DAKOTAS

CITY           SKY/WX    TMP DP  RH WIND       PRES   REMARKS
WILLISTON      LGT SNOW  23  18  81 NE7       30.11R VSB 3/4 WCI  15
MINOT          CLOUDY    16   7  67 NE3       30.14S
DICKINSON      LGT SNOW  22  20  92 E9        30.00R VSB 3/4 WCI  12
BEACH          LGT SNOW  28  28 100 E7        30.02R WCI  21
CROSBY         LGT SNOW  16  14  93 E7        30.16R WCI   6
TIOGA          LGT SNOW  16  16 100 E9        30.15R WCI   4
WATFORD CITY   LGT SNOW  21  19  93 E8        30.09R WCI  12
BISMARCK       LGT SNOW  21  15  78 E6        30.13R WCI  13
GRAND FORKS    CLOUDY     9   1  70 S9        30.26S WCI  -4
FARGO          CLOUDY     9  -1  64 CALM      30.26S
BUFFALO SD       N/A     35  29  78 SW6       29.90R WCI  30
RAPID CITY     CLOUDY    29  28  96 CALM      30.01S
$$

REGIONAL REPORTS...WYOMING/IDAHO/WASHINGTON

CITY           SKY/WX    TMP DP  RH WIND       PRES   REMARKS
GILLETTE       SUNNY     47  25  42 W13       30.08R
SHERIDAN       PTSUNNY   50  23  34 NW20      30.08S
BUFFALO WY     CLOUDY    47  25  42 N18G28    30.11R
CODY           CLOUDY    48  21  34 SE5       30.16R
YELLOWSTONE LA   N/A     23  17  78 CALM      30.36R
IDAHO FALLS    CLOUDY    13  12  96 E3        30.41S
SALMON         CLOUDY    14  10  85 CALM      30.43R
BOISE          PTSUNNY   33  29  85 E7        30.40S WCI  27
SPOKANE        FOG       32  31  96 NE6       30.31R VSB 1/16WCI  26
$$

REGIONAL REPORTS...ALBERTA

CITY           SKY/WX    TMP DP  RH WIND       PRES   REMARKS
EDMONTON       LGT SNOW  19  14  79 E3        30.15S
CALGARY        MOCLDY    36  32  87 N8        30.13R WCI  29
LETHBRIDGE     FOG       27  27 100 NW9       30.15R VSB 1/8 WCI  17
MEDICINE HAT   CLOUDY    27  27 100 W6        30.17R WCI  20
CARDSTON         N/A     45  18  33 W8          N/A
MILK RIVER       N/A     34  25  69 NW8         N/A  WCI  27
$$

REGIONAL REPORTS...SASKATCHEWAN

CITY           SKY/WX    TMP DP  RH WIND       PRES   REMARKS
SWIFT CURRENT  LGT SNOW  16  14  93 E14       30.10R WCI   1
REGINA         FLURRIES  16  12  86 N3        30.18R
SASKATOON      PTSUNNY    7   1  78 E9        30.28R WCI  -7
CYPRESS HILLS    N/A     25  23  93 NW12G22     N/A  WCI  14
VAL MARIE        N/A     28  27  93 E5          N/A
ROCKGLEN         N/A     19  18  93 NE6         N/A  WCI  11
ASSINIBOIA       N/A     18  14  86 E6          N/A  WCI   9
$$



USA.gov is the U.S. government's official web portal to all federal, state and local government web resources and services.